AXB2983 VOTV-VOBL

Flight info

Callsign AXB2983
Flight time 1h 10m
Altitude 35000
Route UGABA DCT RUBOX
Aircraft B738/M-SDE2E3FGHIRWXY/LB1

Departure

Time 2026-04-25 03:30
Airport Thiruvananthapuram International Airport (VOTV)

Arrival

Time 2026-04-25 04:40
Airport Kempegowda International Airport Bengaluru (VOBL)
Time Latitude Longitude Altitude Speed Heading
2026-04-25 03:22 8.48493 76.92178 24 ft 2 kts 117°
2026-04-25 03:22 8.48499 76.92168 26 ft 2 kts 133°
2026-04-25 03:22 8.48503 76.92164 26 ft 0 kts 133°
2026-04-25 03:24 8.48484 76.92183 23 ft 8 kts 136°
2026-04-25 03:24 8.48437 76.92228 22 ft 10 kts 137°
2026-04-25 03:25 8.48382 76.92259 22 ft 10 kts 193°
2026-04-25 03:25 8.48331 76.92216 23 ft 10 kts 223°
2026-04-25 03:25 8.48281 76.92174 22 ft 9 kts 204°
2026-04-25 03:25 8.48231 76.92206 22 ft 9 kts 130°
2026-04-25 03:26 8.48189 76.92254 22 ft 9 kts 133°
2026-04-25 03:26 8.48146 76.92297 22 ft 9 kts 134°
2026-04-25 03:26 8.48103 76.92339 22 ft 8 kts 136°
2026-04-25 03:26 8.48062 76.92380 22 ft 8 kts 137°
2026-04-25 03:27 8.48015 76.92423 22 ft 10 kts 138°
2026-04-25 03:27 8.47951 76.92482 22 ft 17 kts 137°
2026-04-25 03:27 8.47866 76.92564 22 ft 17 kts 134°
2026-04-25 03:27 8.47785 76.92643 21 ft 16 kts 136°
2026-04-25 03:28 8.47694 76.92650 21 ft 15 kts 225°
2026-04-25 03:28 8.47639 76.92593 22 ft 5 kts 225°
2026-04-25 03:28 8.47629 76.92563 22 ft 5 kts 289°
2026-04-25 03:28 8.47652 76.92537 22 ft 5 kts 313°
2026-04-25 03:29 8.47685 76.92505 23 ft 14 kts 316°
2026-04-25 03:29 8.47767 76.92423 24 ft 19 kts 317°
2026-04-25 03:29 8.48089 76.92112 23 ft 112 kts 316°
2026-04-25 03:29 8.48855 76.91370 142 ft 183 kts 316°
2026-04-25 03:30 8.49878 76.90490 1020 ft 193 kts 330°
2026-04-25 03:30 8.51075 76.90109 2472 ft 178 kts
2026-04-25 03:30 8.52284 76.90323 3406 ft 179 kts 16°
2026-04-25 03:30 8.53620 76.90598 3702 ft 209 kts
2026-04-25 03:31 8.55041 76.90820 4430 ft 208 kts 12°
2026-04-25 03:31 8.56550 76.91084 4709 ft 231 kts
2026-04-25 03:31 8.58139 76.91325 5330 ft 233 kts 11°
2026-04-25 03:31 8.59805 76.91589 5722 ft 248 kts 11°
2026-04-25 03:32 8.61522 76.91846 6300 ft 252 kts 11°
2026-04-25 03:32 8.63270 76.92090 6883 ft 254 kts 10°
2026-04-25 03:32 8.65028 76.92319 7446 ft 257 kts 10°
2026-04-25 03:32 8.66820 76.92542 7924 ft 269 kts
2026-04-25 03:33 8.68741 76.92772 8375 ft 283 kts
2026-04-25 03:33 8.70714 76.92999 9072 ft 288 kts
2026-04-25 03:33 8.72714 76.93222 9836 ft 291 kts
2026-04-25 03:33 8.74735 76.93442 10389 ft 301 kts
2026-04-25 03:34 8.76913 76.93680 10547 ft 325 kts
2026-04-25 03:34 8.79217 76.93927 10863 ft 340 kts
2026-04-25 03:34 8.81591 76.94177 11424 ft 346 kts
2026-04-25 03:34 8.84004 76.94428 12073 ft 350 kts
2026-04-25 03:35 8.86436 76.94680 12725 ft 353 kts
2026-04-25 03:35 8.88898 76.94935 13412 ft 357 kts
2026-04-25 03:35 8.91378 76.95192 14008 ft 362 kts
2026-04-25 03:35 8.93899 76.95453 14627 ft 365 kts
2026-04-25 03:36 8.96398 76.95712 15288 ft 366 kts
2026-04-25 03:36 8.98940 76.95975 15945 ft 369 kts
2026-04-25 03:36 9.01504 76.96241 16574 ft 372 kts
2026-04-25 03:36 9.04091 76.96509 17187 ft 375 kts
2026-04-25 03:37 9.06708 76.96781 17790 ft 378 kts
2026-04-25 03:37 9.09335 76.97053 18352 ft 382 kts
2026-04-25 03:37 9.11984 76.97329 18842 ft 385 kts
2026-04-25 03:37 9.14672 76.97608 19332 ft 388 kts
2026-04-25 03:38 9.17365 76.97888 19832 ft 391 kts
2026-04-25 03:38 9.20084 76.98170 20320 ft 394 kts
2026-04-25 03:38 9.22832 76.98456 20797 ft 398 kts
2026-04-25 03:38 9.25603 76.98744 21241 ft 402 kts
2026-04-25 03:39 9.28362 76.99031 21689 ft 405 kts
2026-04-25 03:39 9.31186 76.99324 22154 ft 409 kts
2026-04-25 03:39 9.34021 76.99619 22615 ft 412 kts
2026-04-25 03:39 9.36879 76.99916 23062 ft 415 kts
2026-04-25 03:40 9.39770 77.00217 23509 ft 418 kts
2026-04-25 03:40 9.42677 77.00519 23876 ft 421 kts
2026-04-25 03:40 9.45602 77.00824 24232 ft 425 kts
2026-04-25 03:40 9.48556 77.01131 24602 ft 427 kts
2026-04-25 03:41 9.51526 77.01440 24961 ft 431 kts
2026-04-25 03:41 9.54514 77.01751 25311 ft 433 kts
2026-04-25 03:41 9.57530 77.02065 25655 ft 437 kts
2026-04-25 03:41 9.60528 77.02377 25959 ft 441 kts
2026-04-25 03:42 9.62593 77.02592 26156 ft 443 kts
2026-04-25 03:42 9.66674 77.03017 26623 ft 446 kts
2026-04-25 03:42 9.69768 77.03339 26978 ft 449 kts
2026-04-25 03:42 9.71880 77.03559 27198 ft 450 kts
2026-04-25 03:43 9.74968 77.03881 27528 ft 453 kts
2026-04-25 03:43 9.78116 77.04209 27843 ft 456 kts
2026-04-25 03:43 9.81288 77.04540 28162 ft 458 kts
2026-04-25 03:43 9.84472 77.04872 28466 ft 461 kts
2026-04-25 03:44 9.87680 77.05207 28772 ft 464 kts
2026-04-25 03:44 9.90906 77.05543 29072 ft 466 kts
2026-04-25 03:44 9.94108 77.05877 29356 ft 469 kts
2026-04-25 03:44 9.97401 77.06221 29607 ft 473 kts
2026-04-25 03:45 10.00653 77.06560 29864 ft 475 kts
2026-04-25 03:45 10.03949 77.06904 30179 ft 477 kts
2026-04-25 03:45 10.07259 77.07250 30412 ft 479 kts
2026-04-25 03:45 10.10582 77.07597 30673 ft 481 kts
2026-04-25 03:46 10.13922 77.07946 30834 ft 484 kts
2026-04-25 03:46 10.17284 77.08297 31071 ft 486 kts
2026-04-25 03:46 10.20651 77.08649 31337 ft 487 kts
2026-04-25 03:46 10.24026 77.09002 31552 ft 489 kts
2026-04-25 03:47 10.27424 77.09357 31751 ft 491 kts
2026-04-25 03:47 10.30799 77.09710 31948 ft 493 kts
2026-04-25 03:47 10.34227 77.10069 32113 ft 496 kts
2026-04-25 03:47 10.37674 77.10429 32327 ft 497 kts
2026-04-25 03:48 10.41110 77.10789 32619 ft 496 kts
2026-04-25 03:48 10.44549 77.11149 32947 ft 495 kts
2026-04-25 03:48 10.51463 77.11872 32976 ft 501 kts
2026-04-25 03:49 10.58391 77.12598 32965 ft 497 kts
2026-04-25 03:49 10.65248 77.13318 32967 ft 495 kts
2026-04-25 03:50 10.72095 77.14035 32978 ft 495 kts
2026-04-25 03:50 10.78956 77.14755 32991 ft 495 kts
2026-04-25 03:51 10.85761 77.15469 33002 ft 495 kts
2026-04-25 03:51 10.92626 77.16190 33012 ft 496 kts
2026-04-25 03:52 10.99505 77.16913 33016 ft 497 kts
2026-04-25 03:52 11.06393 77.17636 33017 ft 497 kts
2026-04-25 03:53 11.13283 77.18361 33013 ft 498 kts
2026-04-25 03:53 11.20150 77.19083 33008 ft 498 kts
2026-04-25 03:54 11.27051 77.19810 32994 ft 499 kts
2026-04-25 03:54 11.33961 77.20538 33002 ft 499 kts
2026-04-25 03:55 11.40854 77.21264 33001 ft 499 kts
2026-04-25 03:55 11.47787 77.21995 33012 ft 498 kts
2026-04-25 03:56 11.51200 77.22355 32792 ft 488 kts
2026-04-25 03:56 11.54572 77.22711 32164 ft 486 kts
2026-04-25 03:56 11.57942 77.23066 31380 ft 488 kts
2026-04-25 03:56 11.61335 77.23424 30615 ft 491 kts
2026-04-25 03:57 11.64681 77.23777 29826 ft 492 kts
2026-04-25 03:57 11.68092 77.24137 28875 ft 493 kts
2026-04-25 03:57 11.71507 77.24498 27892 ft 495 kts
2026-04-25 03:57 11.74938 77.24861 26906 ft 496 kts
2026-04-25 03:58 11.78386 77.25225 25871 ft 499 kts
2026-04-25 03:58 11.81857 77.25592 24962 ft 500 kts
2026-04-25 03:58 11.85289 77.25955 24306 ft 493 kts
2026-04-25 03:58 11.88688 77.26315 23704 ft 486 kts
2026-04-25 03:59 11.92043 77.26669 23341 ft 487 kts
2026-04-25 03:59 11.95404 77.27024 23203 ft 484 kts
2026-04-25 03:59 11.98744 77.27378 23083 ft 482 kts
2026-04-25 03:59 12.02086 77.27731 23041 ft 482 kts
2026-04-25 04:00 12.05425 77.28085 23031 ft 481 kts
2026-04-25 04:00 12.08752 77.28438 23033 ft 482 kts
2026-04-25 04:00 12.12088 77.28791 23042 ft 481 kts
2026-04-25 04:00 12.15389 77.29348 23030 ft 479 kts 14°
2026-04-25 04:01 12.18538 77.30412 23036 ft 476 kts 22°
2026-04-25 04:01 12.21557 77.31694 23032 ft 475 kts 23°
2026-04-25 04:01 12.24609 77.33012 23033 ft 475 kts 24°
2026-04-25 04:01 12.27652 77.34322 22984 ft 471 kts 23°
2026-04-25 04:02 12.30644 77.35598 22456 ft 461 kts 23°
2026-04-25 04:02 12.33611 77.36850 21650 ft 460 kts 23°
2026-04-25 04:02 12.36568 77.38089 20840 ft 458 kts 23°
2026-04-25 04:02 12.39505 77.39314 20448 ft 457 kts 23°
2026-04-25 04:03 12.42459 77.40546 20325 ft 456 kts 23°
2026-04-25 04:03 12.45396 77.41770 20203 ft 455 kts 23°
2026-04-25 04:03 12.48335 77.42996 20095 ft 456 kts 23°
2026-04-25 04:03 12.51227 77.44203 20056 ft 454 kts 23°
2026-04-25 04:04 12.54193 77.45441 20056 ft 453 kts 23°
2026-04-25 04:04 12.57112 77.46661 20050 ft 454 kts 23°
2026-04-25 04:04 12.59994 77.47866 20046 ft 453 kts 23°
2026-04-25 04:04 12.62913 77.49086 20050 ft 453 kts 23°
2026-04-25 04:05 12.65836 77.50308 20052 ft 453 kts 23°
2026-04-25 04:05 12.68761 77.51532 20057 ft 453 kts 23°
2026-04-25 04:05 12.71674 77.52750 20064 ft 453 kts 23°
2026-04-25 04:05 12.74592 77.53971 20070 ft 453 kts 23°
2026-04-25 04:06 12.77512 77.55194 20070 ft 453 kts 23°
2026-04-25 04:06 12.80432 77.56417 20075 ft 453 kts 23°
2026-04-25 04:06 12.83349 77.57638 20073 ft 453 kts 23°
2026-04-25 04:06 12.86291 77.58824 20098 ft 454 kts 18°
2026-04-25 04:07 12.89406 77.59324 20109 ft 457 kts 360°
2026-04-25 04:07 12.92547 77.58802 20110 ft 458 kts 341°
2026-04-25 04:07 12.95409 77.57395 20106 ft 458 kts 326°
2026-04-25 04:07 12.97774 77.55247 20059 ft 449 kts 309°
2026-04-25 04:08 12.99375 77.52592 19940 ft 430 kts 291°
2026-04-25 04:08 13.00228 77.49719 19724 ft 415 kts 282°
2026-04-25 04:08 13.00821 77.46838 19223 ft 411 kts 280°
2026-04-25 04:08 13.01342 77.43998 18612 ft 411 kts 279°
2026-04-25 04:09 13.01848 77.41114 17984 ft 410 kts 279°
2026-04-25 04:09 13.02339 77.38199 17377 ft 407 kts 279°
2026-04-25 04:09 13.02789 77.35387 16831 ft 405 kts 279°
2026-04-25 04:09 13.03230 77.32500 16267 ft 402 kts 279°
2026-04-25 04:10 13.03638 77.29673 15706 ft 400 kts 279°
2026-04-25 04:10 13.04018 77.26891 15153 ft 399 kts 279°
2026-04-25 04:10 13.04379 77.24077 14640 ft 397 kts 279°
2026-04-25 04:10 13.04720 77.21275 14137 ft 395 kts 279°
2026-04-25 04:11 13.05358 77.15728 13092 ft 390 kts 279°
2026-04-25 04:11 13.05666 77.12973 12556 ft 388 kts 279°
2026-04-25 04:11 13.05974 77.10228 12036 ft 385 kts 279°
2026-04-25 04:12 13.06281 77.07512 11544 ft 382 kts 279°
2026-04-25 04:12 13.06589 77.04815 11057 ft 380 kts 278°
2026-04-25 04:12 13.06901 77.02132 10562 ft 378 kts 278°
2026-04-25 04:12 13.07217 76.99456 10082 ft 376 kts 278°
2026-04-25 04:13 13.07536 76.96797 9588 ft 373 kts 278°
2026-04-25 04:13 13.07859 76.94162 9108 ft 370 kts 279°
2026-04-25 04:13 13.08482 76.91637 8595 ft 364 kts 296°
2026-04-25 04:13 13.09829 76.89463 8141 ft 358 kts 310°
2026-04-25 04:14 13.11509 76.87685 8049 ft 340 kts 327°
2026-04-25 04:14 13.13528 76.86637 7967 ft 321 kts 343°
2026-04-25 04:14 13.15635 76.86067 7881 ft 306 kts 354°
2026-04-25 04:14 13.17706 76.85809 7814 ft 293 kts 357°
2026-04-25 04:15 13.19704 76.85605 7665 ft 286 kts 358°
2026-04-25 04:15 13.21684 76.85413 7382 ft 285 kts 358°
2026-04-25 04:15 13.23660 76.85229 7036 ft 286 kts 358°
2026-04-25 04:15 13.25646 76.85051 6722 ft 286 kts 357°
2026-04-25 04:16 13.27627 76.84894 6438 ft 284 kts
2026-04-25 04:16 13.29525 76.85296 6106 ft 280 kts 29°
2026-04-25 04:16 13.30980 76.86548 6062 ft 279 kts 56°
2026-04-25 04:16 13.31713 76.88353 6104 ft 274 kts 83°
2026-04-25 04:17 13.31586 76.90279 6156 ft 269 kts 103°
2026-04-25 04:17 13.31090 76.92133 6158 ft 270 kts 106°
2026-04-25 04:17 13.30547 76.93976 6141 ft 270 kts 107°
2026-04-25 04:17 13.29991 76.95850 6030 ft 276 kts 107°
2026-04-25 04:18 13.29431 76.97723 5975 ft 273 kts 107°
2026-04-25 04:18 13.28876 76.99580 5950 ft 270 kts 107°
2026-04-25 04:18 13.28328 77.01412 5947 ft 268 kts 107°
2026-04-25 04:18 13.27786 77.03233 5945 ft 265 kts 107°
2026-04-25 04:19 13.27250 77.05038 5948 ft 267 kts 107°
2026-04-25 04:19 13.26701 77.06884 5945 ft 271 kts 107°
2026-04-25 04:19 13.26146 77.08730 5962 ft 270 kts 107°
2026-04-25 04:19 13.25601 77.10552 5960 ft 271 kts 107°
2026-04-25 04:20 13.25051 77.12400 5966 ft 270 kts 107°
2026-04-25 04:20 13.24502 77.14239 5951 ft 270 kts 107°
2026-04-25 04:20 13.23947 77.16078 5965 ft 269 kts 107°
2026-04-25 04:20 13.23404 77.17911 5963 ft 268 kts 107°
2026-04-25 04:21 13.22863 77.19744 5967 ft 267 kts 107°
2026-04-25 04:21 13.22328 77.21568 5956 ft 267 kts 107°
2026-04-25 04:21 13.21796 77.23396 5966 ft 267 kts 104°
2026-04-25 04:21 13.21567 77.25290 5985 ft 268 kts 93°
2026-04-25 04:22 13.21536 77.27214 5960 ft 270 kts 91°
2026-04-25 04:22 13.21525 77.29144 5962 ft 270 kts 91°
2026-04-25 04:22 13.21522 77.31071 5965 ft 270 kts 91°
2026-04-25 04:22 13.21518 77.32993 5970 ft 269 kts 91°
2026-04-25 04:23 13.21515 77.34883 5955 ft 259 kts 91°
2026-04-25 04:23 13.21510 77.36683 5958 ft 245 kts 91°
2026-04-25 04:23 13.21508 77.38365 5952 ft 232 kts 91°
2026-04-25 04:23 13.21510 77.39972 5966 ft 220 kts 91°
2026-04-25 04:24 13.21512 77.41539 5978 ft 218 kts 91°
2026-04-25 04:24 13.21511 77.43087 5970 ft 217 kts 91°
2026-04-25 04:24 13.21508 77.44633 6004 ft 215 kts 91°
2026-04-25 04:24 13.21503 77.46155 5991 ft 210 kts 91°
2026-04-25 04:25 13.21500 77.47631 5982 ft 204 kts 91°
2026-04-25 04:25 13.21495 77.49074 5980 ft 201 kts 91°
2026-04-25 04:25 13.21494 77.50514 6007 ft 203 kts 91°
2026-04-25 04:25 13.21497 77.51963 5990 ft 204 kts 91°
2026-04-25 04:26 13.21498 77.53422 6008 ft 205 kts 91°
2026-04-25 04:26 13.21502 77.54889 5999 ft 206 kts 90°
2026-04-25 04:26 13.21499 77.56345 5884 ft 203 kts 92°
2026-04-25 04:26 13.21401 77.57756 5716 ft 194 kts 100°
2026-04-25 04:27 13.21124 77.59104 5446 ft 195 kts 104°
2026-04-25 04:27 13.21035 77.60038 5212 ft 201 kts 95°
2026-04-25 04:27 13.20921 77.61948 4928 ft 201 kts 98°
2026-04-25 04:27 13.20837 77.63279 5145 ft 174 kts 94°
2026-04-25 04:28 13.20818 77.64462 5130 ft 161 kts 93°
2026-04-25 04:28 13.20804 77.65586 5130 ft 153 kts 93°
2026-04-25 04:28 13.20788 77.66697 5223 ft 164 kts 93°
2026-04-25 04:28 13.20753 77.67977 5520 ft 199 kts 93°
2026-04-25 04:29 13.20485 77.69421 5942 ft 212 kts 117°
2026-04-25 04:29 13.19839 77.70175 5956 ft 217 kts 145°
2026-04-25 04:29 13.18399 77.70500 5999 ft 219 kts 187°
2026-04-25 04:29 13.17019 77.69794 6020 ft 228 kts 216°
2026-04-25 04:30 13.16001 77.68541 5981 ft 232 kts 244°
2026-04-25 04:30 13.15830 77.66918 6002 ft 235 kts 280°
2026-04-25 04:30 13.16005 77.65238 5996 ft 241 kts 268°
2026-04-25 04:30 13.15969 77.63482 5988 ft 249 kts 269°
2026-04-25 04:31 13.15956 77.61704 5979 ft 248 kts 269°
2026-04-25 04:31 13.15949 77.59937 5974 ft 247 kts 269°
2026-04-25 04:31 13.15947 77.58188 5976 ft 251 kts 269°
2026-04-25 04:31 13.15946 77.56388 5989 ft 251 kts 269°
2026-04-25 04:32 13.15942 77.54604 5995 ft 249 kts 269°
2026-04-25 04:32 13.15937 77.52836 5994 ft 247 kts 269°
2026-04-25 04:32 13.15932 77.51078 5989 ft 245 kts 269°
2026-04-25 04:32 13.15927 77.49329 5977 ft 244 kts 269°
2026-04-25 04:33 13.15923 77.47599 6016 ft 244 kts 269°
2026-04-25 04:33 13.15921 77.45851 6024 ft 245 kts 269°
2026-04-25 04:33 13.15921 77.44106 6007 ft 244 kts 269°
2026-04-25 04:33 13.16182 77.42416 6011 ft 241 kts 297°
2026-04-25 04:34 13.17336 77.41222 6018 ft 238 kts 338°
2026-04-25 04:34 13.18931 77.41049 6004 ft 230 kts 19°
2026-04-25 04:34 13.20194 77.41934 6002 ft 219 kts 60°
2026-04-25 04:34 13.20580 77.43397 6014 ft 213 kts 89°
2026-04-25 04:35 13.20722 77.44898 6013 ft 213 kts 82°
2026-04-25 04:35 13.20898 77.46418 6010 ft 213 kts 89°
2026-04-25 04:35 13.20912 77.47941 6026 ft 213 kts 91°
2026-04-25 04:35 13.20895 77.49415 6023 ft 205 kts 92°
2026-04-25 04:36 13.20879 77.50849 5998 ft 197 kts 92°
2026-04-25 04:36 13.20864 77.52254 5954 ft 200 kts 91°
2026-04-25 04:36 13.20851 77.53692 5728 ft 200 kts 92°
2026-04-25 04:36 13.20838 77.55079 5489 ft 191 kts 92°
2026-04-25 04:37 13.20826 77.56414 5251 ft 183 kts 92°
2026-04-25 04:37 13.20814 77.57703 5038 ft 177 kts 93°
2026-04-25 04:37 13.20803 77.58940 4816 ft 169 kts 94°
2026-04-25 04:37 13.20792 77.60116 4593 ft 165 kts 94°
2026-04-25 04:38 13.20781 77.61303 4396 ft 164 kts 93°
2026-04-25 04:38 13.20771 77.62464 4186 ft 160 kts 93°
2026-04-25 04:38 13.20761 77.63593 3987 ft 158 kts 95°
2026-04-25 04:38 13.20752 77.64738 3789 ft 158 kts 94°
2026-04-25 04:39 13.20733 77.65888 3526 ft 169 kts 95°
2026-04-25 04:39 13.20726 77.67080 3315 ft 166 kts 88°
2026-04-25 04:39 13.20742 77.68222 3106 ft 160 kts 92°
2026-04-25 04:39 13.20705 77.69338 3030 ft 148 kts 89°
2026-04-25 04:40 13.20706 77.70292 3010 ft 109 kts 91°
2026-04-25 04:40 13.20524 77.70806 3010 ft 48 kts 91°
2026-04-25 04:40 13.20527 77.70941 3010 ft 0 kts 90°
2026-04-25 04:41 13.20527 77.70960 3010 ft 6 kts 90°
2026-04-25 04:41 13.20527 77.71008 3010 ft 7 kts 91°
2026-04-25 04:41 13.20526 77.71060 3010 ft 8 kts 92°
2026-04-25 04:41 13.20527 77.71150 3010 ft 14 kts 89°
2026-04-25 04:42 13.20523 77.71244 3010 ft 13 kts 110°
2026-04-25 04:42 13.20447 77.71277 3010 ft 13 kts 182°
2026-04-25 04:42 13.20361 77.71275 3013 ft 12 kts 179°
2026-04-25 04:42 13.20275 77.71275 3010 ft 12 kts 179°
2026-04-25 04:43 13.20197 77.71299 3015 ft 12 kts 173°
2026-04-25 04:43 13.20166 77.71303 3010 ft 0 kts 172°
2026-04-25 04:43 13.20161 77.71304 3010 ft 0 kts 172°